Temp
8 8 8 8 8 8 9 9 9 9 10 10 10 10 12 13 16 18 17 23 26 26 25 24 24 23 23 22 23 21 20 20 22 22 24 26 27 27 28 28 28 28 27 26 27
7 7 7 8 8 8 8 8 8 9 9 9 9 10 11 12 13 13 23 23 25 25 24 23 22 22 21 22 22 21 18 21 24 23 24 25 25 25 27 26 27 27 27 27 25
7 7 7 7 7 7 7 7 8 8 9 9 9 8 10 12 13 18 24 24 23 23 23 25 24 21 21 21 21 21 22 24 24 25 25 24 24 27 26 25 27 26 28 25 22
7 7 7 7 7 7 7 7 7 8 8 9 8 9 9 12 17 22 21 21 22 22 21 23 22 20 20 20 22 21 22 25 25 26 25 25 25 25 26 26 27 27 26 25 21
7 7 7 7 7 7 7 7 7 7 7 7 8 8 8 9 12 22 22 21 20 19 21 21 22 21 20 20 22 21 23 24 23 23 24 25 24 25 25 27 27 26 25 23 21
7 7 7 7 7 7 8 8 7 7 7 7 8 8 8 9 15 18 19 18 20 20 20 21 22 22 22 21 21 21 22 23 23 23 24 24 25 25 26 27 26 26 24 23 21
7 7 7 7 7 7 7 7 7 7 7 7 7 8 9 10 14 16 17 16 18 20 21 21 23 23 21 23 22 22 22 22 23 24 23 25 23 24 27 26 25 25 25 23 22
7 7 7 6 7 7 7 7 7 7 7 7 7 8 9 11 12 13 19 17 18 18 19 22 22 22 22 22 22 23 21 21 24 25 24 24 23 25 26 24 24 24 24 23 22
7 7 7 7 6 6 7 7 9 8 7 7 7 8 8 12 11 14 13 14 19 18 19 21 22 20 20 20 19 19 21 21 22 25 24 23 23 25 25 24 24 25 24 24 23
6 7 7 7 7 7 7 8 9 9 8 8 9 9 9 13 14 16 16 14 18 18 19 19 19 18 17 17 20 19 20 19 22 24 23 21 21 24 24 23 23 23 23 22 22
6 6 7 6 6 7 6 8 9 9 9 9 9 9 12 15 15 18 16 14 17 18 17 18 18 18 20 21 22 22 21 21 23 24 23 22 21 23 25 23 22 23 24 23 21
6 6 6 6 6 6 6 5 9 8 7 10 10 11 11 13 13 15 17 16 17 17 19 18 19 21 21 21 21 21 21 21 23 23 23 22 21 22 23 23 23 24 24 22 21
6 6 6 6 7 6 5 7 8 7 7 10 11 11 12 12 11 14 16 17 18 17 19 19 21 22 21 21 21 21 21 22 23 22 23 22 22 23 24 24 23 23 22 21 20
6 6 6 6 7 6 6 7 7 7 7 10 11 12 13 13 13 16 19 18 19 18 19 19 22 22 21 21 22 20 22 23 22 21 19 21 18 22 23 23 23 24 23 22 21
6 6 6 6 5 7 7 7 8 8 9 15 14 16 15 14 16 16 17 19 18 19 19 18 21 21 21 21 22 22 23 22 22 20 20 21 19 21 22 23 23 24 24 22 17
6 6 6 6 6 6 6 7 8 8 9 14 15 15 14 14 15 17 15 17 20 19 20 20 22 22 23 23 23 23 22 20 19 18 17 20 20 21 21 24 24 25 25 19 15
6 6 5 5 6 7 7 6 7 7 14 13 12 14 15 14 15 16 16 15 17 17 17 19 20 22 22 21 21 21 19 17 17 17 17 21 19 22 22 22 24 24 23 17 15
7 7 6 5 5 6 5 6 7 11 11 13 13 15 14 13 13 14 15 15 17 18 18 17 18 21 22 22 21 21 19 17 18 17 19 21 19 21 23 25 23 23 22 16 14
7 6 6 7 6 5 6 7 8 10 12 11 12 12 13 14 13 13 13 14 16 17 18 18 19 22 23 23 23 19 20 19 19 19 18 19 21 24 23 24 23 21 17 15 14
5 5 6 6 6 6 6 8 8 10 10 11 10 12 11 12 13 12 12 14 14 15 14 19 19 22 23 23 24 22 21 20 18 19 19 20 22 23 25 26 24 20 18 15 14
5 5 6 6 6 6 5 6 8 10 11 10 10 10 11 11 13 12 11 11 14 14 14 15 18 20 21 21 21 18 20 19 19 16 17 19 20 20 25 25 23 20 17 15 15
5 3 7 5 6 5 5 8 9 9 10 10 10 10 11 12 12 13 12 12 12 13 12 13 14 18 20 21 23 23 20 19 21 19 18 19 20 23 22 23 22 21 18 15 15
4 4 7 5 6 6 6 7 8 8 9 9 9 10 12 11 10 12 11 12 12 12 13 13 12 16 19 21 21 22 21 20 17 17 20 20 19 23 23 24 21 19 17 16 15
2 4 3 4 5 6 6 7 8 10 9 10 10 10 10 11 12 11 11 13 13 12 13 13 11 12 17 19 20 20 22 22 19 17 18 23 23 25 23 22 20 19 17 15 16
2 4 6 4 4 6 5 6 7 8 8 8 9 10 9 9 11 11 12 13 14 13 11 11 10 12 13 16 17 20 22 22 22 22 21 22 22 23 22 21 20 18 16 16 16
3 4 5 5 5 5 5 7 6 8 9 9 9 9 8 8 10 10 11 11 12 12 10 11 10 11 13 17 18 19 20 22 23 22 22 23 22 22 23 21 20 19 18 18 18
5 5 5 6 6 4 3 7 7 7 8 8 8 8 8 9 10 10 10 11 12 10 11 10 10 10 12 14 16 18 20 20 22 23 23 22 25 22 23 22 20 19 20 20 19
Height
814 812 809 806 802 798 798 798 795 792 790 787 785 784 779 778 776 774 772 764 764 762 768 766 767 776 780 778 779 785 810 813 796 796 780 760 763 756 751 756 752 748 746 740 739
808 807 805 803 800 800 799 796 793 791 790 787 784 783 780 777 772 768 754 759 761 761 764 763 766 773 784 780 780 789 810 796 767 767 771 764 765 762 760 757 751 749 740 739 739
810 808 805 801 798 798 795 792 790 789 787 787 785 783 780 776 772 752 748 751 754 753 757 759 760 771 783 778 778 779 785 771 764 755 760 762 759 757 760 763 747 751 737 735 737
810 808 805 803 800 794 792 790 790 787 785 784 783 781 779 777 776 747 746 749 748 746 751 753 759 776 779 781 769 779 769 763 758 756 760 762 758 756 754 750 739 736 733 732 733
809 807 804 800 796 794 791 789 787 785 784 783 781 779 776 775 759 746 747 747 750 750 747 747 754 763 776 771 768 769 761 760 760 760 753 752 756 755 751 733 732 731 729 728 726
807 804 801 797 795 791 788 785 782 781 780 779 778 778 779 767 748 746 745 746 748 753 752 748 746 749 759 764 768 759 759 759 760 759 751 753 747 751 739 728 730 726 725 721 720
804 801 798 794 791 787 784 781 778 775 773 773 775 775 767 739 742 741 744 743 744 746 747 748 745 749 752 761 755 756 766 762 757 752 752 744 754 748 723 727 728 724 718 714 712
801 798 795 791 788 784 781 776 771 768 767 767 770 774 753 740 738 736 738 733 739 744 745 745 749 749 752 753 756 760 762 772 747 744 743 747 754 731 723 726 725 719 714 710 706
799 796 792 788 785 781 776 770 765 761 760 764 771 771 750 738 734 723 729 731 733 738 741 745 745 750 753 765 776 769 772 768 759 739 744 747 746 721 718 722 721 712 708 704 700
798 794 791 786 782 778 773 766 761 760 760 764 768 771 749 733 727 721 718 722 730 732 740 746 747 754 757 765 763 773 770 766 759 741 742 749 749 726 716 721 718 711 704 701 696
796 792 788 784 781 777 772 766 765 764 762 762 761 755 737 726 723 717 716 724 728 729 740 741 754 739 727 733 740 746 754 755 741 737 745 745 744 727 714 718 715 706 699 693 690
793 789 785 782 778 774 772 772 770 774 765 753 747 742 735 731 731 719 713 716 723 721 728 743 726 718 724 731 737 743 749 750 734 735 741 740 740 725 714 710 706 699 691 689 687
790 786 782 779 774 772 773 772 772 770 766 744 729 726 723 722 726 710 714 704 708 720 715 715 692 711 719 726 736 737 740 741 739 740 735 739 738 728 706 701 697 692 687 683 685
788 784 781 776 774 773 771 770 769 767 766 734 724 715 713 714 709 698 697 700 702 707 712 713 703 706 714 717 720 734 725 730 737 750 768 737 767 734 715 707 697 684 681 679 681
784 781 778 776 775 773 772 769 766 767 764 711 710 704 702 707 695 683 689 694 695 696 703 697 695 703 705 704 710 717 715 727 737 750 753 747 765 731 718 713 697 684 677 676 683
781 777 774 773 772 771 769 767 765 768 750 714 708 708 707 702 695 682 686 691 683 692 688 690 682 689 688 695 702 709 722 736 744 754 767 749 757 727 724 702 692 680 674 681 687
778 773 771 770 768 767 768 766 772 767 718 719 720 713 704 705 694 690 687 692 690 700 701 694 692 682 683 702 705 716 738 770 772 772 765 732 749 714 700 691 682 678 676 686 693
774 770 767 766 766 766 766 768 766 732 729 721 721 710 713 712 704 700 692 696 691 685 689 701 708 685 675 685 701 708 723 748 766 765 745 719 733 711 680 670 672 671 673 685 691
772 768 766 765 763 764 765 764 754 741 732 731 721 720 714 715 720 710 705 698 691 687 690 690 690 665 666 671 681 711 717 716 732 731 743 725 705 682 674 672 672 675 679 686 690
771 769 767 763 762 764 766 758 753 741 740 735 736 722 730 720 718 723 712 700 699 695 693 675 687 663 666 669 672 682 696 725 732 742 745 723 709 697 673 666 667 673 678 685 691
771 771 767 764 764 764 770 762 751 740 739 737 735 737 729 726 714 718 724 715 702 697 688 684 679 670 666 667 679 696 696 706 710 732 740 736 717 678 664 661 666 670 676 684 686
776 780 765 762 763 766 768 755 746 741 738 737 734 734 728 722 719 713 718 719 713 707 704 699 695 681 670 657 657 665 680 687 698 715 720 721 713 659 659 657 661 663 671 682 685
780 776 765 764 766 763 760 755 750 746 741 739 737 729 724 726 731 715 717 719 718 717 709 704 702 692 679 669 661 663 666 677 694 705 710 721 712 657 657 653 661 667 671 678 684
784 781 773 769 770 766 763 756 750 740 739 736 734 730 729 725 718 721 718 708 709 714 708 705 709 700 681 671 665 671 668 670 686 710 707 683 681 663 659 662 665 665 672 678 682
786 784 778 778 773 768 768 761 754 747 743 739 733 730 734 732 721 714 710 708 704 707 715 714 718 700 689 678 675 667 660 664 668 672 688 679 678 665 660 658 658 660 672 678 682
789 787 780 777 773 770 765 755 756 748 743 737 736 732 734 735 722 721 714 711 708 708 716 719 718 705 691 667 669 671 664 657 659 664 670 669 672 653 648 654 658 657 666 672 677
785 783 782 774 769 776 775 760 757 754 740 738 737 736 733 726 722 719 717 712 710 715 714 718 721 714 703 685 678 673 651 659 657 650 660 674 649 651 652 654 655 657 657 661 668
Wind_Speed
16 17 17 18 19 19 19 20 21 21 21 22 22 22 22 22 23 18 10 22 11 10 14 4 7 6 10 4 4 4 1 5 7 6 8 4 2 3 0 4 4 6 6 6 4
20 20 19 19 18 18 19 19 19 20 20 21 21 22 22 22 21 12 37 30 24 19 13 14 8 10 3 5 5 5 5 10 8 8 7 2 1 5 4 10 11 5 8 9 12
20 21 21 20 20 21 21 21 20 19 19 19 20 21 21 17 5 10 18 13 22 32 21 15 14 8 6 4 6 8 14 15 7 9 2 6 10 1 5 11 14 9 19 3 9
19 19 20 21 21 21 21 20 20 20 19 18 18 18 21 4 8 2 13 16 7 17 22 14 8 8 8 9 7 3 11 20 9 6 2 11 7 14 14 18 15 17 11 5 9
19 19 19 20 21 22 23 22 21 20 19 18 16 15 10 3 9 16 11 17 15 10 15 9 11 8 7 6 7 7 12 7 9 10 11 12 15 17 17 24 12 13 11 12 11
21 22 22 21 21 22 24 25 25 23 20 17 15 13 6 17 11 22 27 24 13 8 5 9 8 8 6 6 5 6 7 8 6 12 13 18 19 3 16 19 15 14 14 11 12
23 24 24 24 24 25 24 24 25 27 23 19 14 13 14 26 15 10 15 18 5 13 6 18 5 7 6 2 5 4 4 8 10 9 8 13 7 14 25 11 12 15 15 12 14
25 26 26 25 25 24 25 27 29 28 25 20 13 12 11 12 19 25 27 37 31 16 8 15 14 5 3 2 3 1 3 3 4 5 7 10 9 19 14 9 16 14 12 10 14
26 27 28 27 25 26 29 30 32 24 18 12 7 7 13 13 11 26 32 18 16 24 18 8 11 7 4 6 4 1 9 9 6 11 6 7 13 17 7 6 14 14 13 12 14
25 26 27 26 27 27 29 32 14 7 10 7 7 3 8 5 10 9 12 31 8 8 6 7 5 6 6 6 15 6 5 6 9 3 4 8 11 19 20 8 14 12 12 11 12
25 26 26 26 24 24 28 12 3 2 1 5 8 8 15 9 17 7 6 15 9 5 8 8 8 20 28 20 7 10 14 10 8 3 6 7 8 18 16 8 11 13 13 14 11
26 26 25 24 25 27 12 1 3 3 9 10 17 22 34 24 11 13 20 7 9 15 11 6 28 20 14 16 19 12 15 14 16 6 5 11 12 16 17 13 11 15 16 11 6
26 26 25 25 26 6 8 7 6 14 5 8 10 8 11 13 15 20 9 6 7 12 24 27 27 15 17 19 17 19 21 19 18 4 4 7 11 15 14 7 7 10 11 8 8
25 26 25 26 7 11 10 2 18 8 4 7 5 7 5 7 9 31 9 7 7 19 16 19 25 21 16 23 18 24 16 16 14 1 4 4 6 13 15 13 8 11 7 8 4
27 25 23 17 15 6 6 16 18 2 4 2 4 4 5 8 5 7 34 12 10 10 10 13 19 30 22 23 22 13 13 13 9 5 3 2 5 6 4 11 12 10 11 7 6
26 25 22 16 8 13 17 16 1 1 8 3 4 12 2 6 11 6 14 16 5 8 12 9 5 19 23 14 18 8 6 5 3 2 6 9 7 7 6 15 7 7 3 2 7
27 27 20 14 5 4 11 3 2 5 6 3 7 15 12 19 3 3 4 18 11 10 8 5 9 2 11 7 6 9 8 1 2 2 5 5 8 15 9 10 11 11 6 6 6
31 25 15 6 8 3 2 2 6 3 5 10 8 6 13 15 14 14 6 5 18 4 7 7 5 13 10 9 11 22 13 7 8 4 4 10 8 6 20 19 11 8 4 9 9
28 15 8 6 10 9 2 4 3 4 4 9 9 6 4 11 10 12 6 6 5 15 5 9 7 5 17 8 18 7 15 9 4 2 2 5 6 6 9 8 8 7 7 9 9
21 7 7 16 4 5 1 3 4 4 7 6 2 4 5 11 7 13 9 13 10 10 7 5 2 8 14 8 18 14 11 6 3 6 4 5 4 5 6 7 4 5 8 7 7
5 3 11 11 2 1 0 4 4 8 7 3 2 5 7 11 6 4 6 14 16 21 8 5 1 2 10 17 13 4 10 3 6 5 5 1 6 7 7 8 8 8 8 10 13
5 3 14 6 1 1 1 3 5 7 5 4 3 7 8 9 5 2 5 8 16 16 9 3 3 3 15 6 19 14 9 9 8 10 2 3 5 4 8 6 4 8 10 8 8
3 3 5 4 2 2 4 4 4 3 3 3 4 3 3 5 5 6 2 7 9 16 12 8 4 2 3 5 3 23 14 8 6 4 13 4 5 2 4 2 4 8 9 10 10
2 4 4 3 1 3 5 5 4 4 6 4 4 4 3 6 4 5 5 3 4 10 16 8 3 3 6 2 4 14 15 15 6 4 7 20 4 7 6 6 7 8 8 8 9
3 2 1 4 3 9 4 4 6 6 3 4 4 2 4 3 7 2 6 4 5 5 5 6 4 3 10 11 8 5 19 18 24 19 7 6 7 7 9 10 10 9 9 11 11
1 2 3 5 6 6 3 2 3 6 5 5 3 7 6 4 6 8 7 3 3 4 2 5 4 8 5 12 8 10 8 20 22 17 15 6 8 8 4 6 6 12 13 12 13
3 3 1 3 5 3 3 4 6 13 7 6 6 11 12 10 5 10 10 9 7 3 5 3 3 5 5 10 8 8 20 9 13 18 13 11 16 5 4 7 9 10 14 16 15
Wind_Direction
345 341 338 336 332 329 324 322 323 326 329 333 336 335 334 329 308 302 253 246 256 223 233 179 142 169 195 172 140 112 102 237 223 174 248 216 284 157 117 241 283 220 224 246 278
347 341 336 336 336 328 323 321 320 320 320 326 329 331 332 333 320 261 261 262 254 242 205 164 146 157 209 197 180 157 173 229 195 178 245 266 184 346 328 312 282 259 271 265 185
348 345 344 339 331 328 329 327 322 319 319 319 321 325 329 336 306 251 292 261 247 238 224 193 156 149 190 171 204 188 219 242 269 225 140 280 285 262 285 288 276 284 296 231 195
346 341 339 336 336 332 326 324 323 320 316 313 316 324 326 329 239 47 105 34 327 213 189 177 142 172 186 202 203 197 224 239 266 289 278 259 312 287 275 261 273 281 270 237 202
341 339 337 334 331 327 326 324 318 316 313 311 313 323 344 278 244 235 231 300 345 168 188 161 166 161 194 200 205 212 238 246 262 286 272 276 261 266 287 281 274 270 283 239 215
341 338 335 331 327 324 323 322 318 318 309 308 310 310 272 252 253 257 268 292 284 253 215 185 183 186 187 216 202 212 221 251 251 266 276 272 275 277 261 270 285 280 267 248 217
339 338 335 333 329 325 320 316 310 308 305 300 300 294 257 245 252 237 283 277 280 253 221 227 245 175 165 292 223 228 241 266 235 238 246 270 273 249 265 273 259 267 263 253 227
335 336 335 332 328 324 322 313 309 303 295 287 288 286 257 284 271 263 251 265 261 254 263 233 244 261 192 267 29 258 154 258 182 203 254 167 269 265 272 246 258 260 263 254 246
334 334 333 331 329 327 325 317 312 307 289 259 242 231 274 277 256 258 244 234 255 237 243 270 191 196 141 200 321 354 255 250 297 246 243 184 287 270 270 252 274 277 274 270 263
332 331 331 330 329 329 328 323 335 70 79 128 219 258 266 231 303 261 246 207 201 150 143 187 208 189 178 160 216 196 255 237 234 272 185 267 260 280 279 253 255 264 271 266 259
330 329 328 328 329 330 329 341 20 5 257 210 190 245 296 299 335 268 177 164 200 154 165 173 195 216 209 207 193 201 231 240 244 193 226 238 259 273 281 250 261 269 269 273 264
331 330 329 328 329 324 316 285 29 352 298 247 245 236 247 261 284 291 150 140 187 193 154 168 219 216 190 192 208 203 225 239 269 228 207 278 275 284 285 271 250 266 275 267 245
330 331 332 331 329 345 341 287 332 342 254 275 229 234 231 217 229 254 247 161 180 185 189 201 225 200 186 192 198 217 219 233 244 21 289 313 295 286 282 262 265 257 255 263 257
326 328 328 333 343 341 299 244 333 335 307 266 213 244 202 215 238 236 232 188 202 197 194 229 231 190 195 209 190 218 210 233 250 216 242 108 286 289 301 299 265 288 284 266 180
326 325 324 326 297 295 294 316 328 151 310 234 178 187 231 191 303 243 207 225 202 171 170 210 193 211 207 198 192 228 194 215 241 230 242 204 273 257 294 289 280 280 279 276 152
328 324 322 319 271 265 289 308 151 175 245 281 54 340 303 245 258 307 172 232 187 194 230 202 204 200 214 198 200 164 93 58 49 115 247 231 202 246 216 236 257 262 285 71 128
334 328 313 282 266 195 316 344 121 214 319 24 348 356 358 344 15 294 250 192 194 189 201 167 231 250 159 132 151 142 119 211 299 261 229 202 196 245 265 240 231 252 242 140 151
335 332 325 263 281 267 236 96 220 267 280 342 346 348 322 5 338 350 322 194 233 248 175 162 193 194 180 180 169 182 168 161 188 206 234 207 213 239 224 241 242 253 183 146 150
336 340 332 3 326 188 215 210 236 347 8 345 335 358 343 11 346 341 330 353 16 228 253 189 231 165 180 170 166 188 210 164 133 209 121 234 272 288 220 213 220 190 150 163 156
335 334 5 346 151 172 111 247 280 342 335 332 19 350 338 349 332 352 323 36 353 354 335 261 179 206 193 152 192 179 148 171 198 193 225 280 274 221 183 220 250 192 181 160 142
360 13 356 18 226 135 163 251 282 285 328 260 307 324 317 312 314 334 294 309 359 1 337 346 164 293 141 200 169 134 179 136 159 149 169 201 260 218 198 197 200 210 177 164 166
344 26 338 335 270 106 255 260 296 293 290 276 265 231 255 292 312 304 273 284 330 340 343 314 306 211 214 147 198 203 178 164 196 191 183 152 279 243 231 217 233 187 157 159 155
332 275 288 330 52 352 278 281 263 291 289 325 303 256 343 310 327 347 87 255 335 336 347 345 312 137 17 262 202 200 198 161 107 113 204 147 246 332 286 264 251 184 154 151 153
8 345 320 34 162 315 329 286 302 281 266 259 260 269 296 303 258 270 277 277 292 311 324 329 272 258 199 258 107 204 201 200 153 159 164 219 213 240 265 215 191 148 143 143 154
25 323 43 315 334 317 297 291 319 335 340 300 318 322 348 281 310 256 359 297 269 31 18 353 274 265 276 273 306 325 203 200 211 215 185 185 205 242 237 211 198 149 129 144 161
16 358 329 295 294 318 329 271 293 291 315 303 232 322 314 248 259 286 300 8 299 128 96 325 289 348 302 286 270 270 255 217 211 218 222 188 249 210 277 98 157 163 157 171 178
332 293 254 271 310 13 274 340 314 317 285 229 296 312 296 282 323 290 273 265 243 180 193 181 310 353 294 341 313 254 239 227 224 215 187 194 224 164 200 205 194 169 176 179 183